Jeddah/Abdul Aziz, Saudi Arabia

11:27 PM AST on December 02, 2016 (GMT +0300)
Jeddah/Abdul Aziz

Weather History for 41024 - August, 2006

Change the Weather History Date:

Thursday, August 31, 2006

  Actual Average Record
Temperature  
Mean Temperature 96 °F -  
Max Temperature 105 °F 97 °F - ()
Min Temperature 86 °F 79 °F - ()
Cooling Degree Days 30    
Growing Degree Days 46 (Base 50)    
Moisture  
Dew Point 82 °F    
Average Humidity 66    
Maximum Humidity 79    
Minimum Humidity 39    
Precipitation  
Precipitation 0.00 in -13.29 in - ()
Sea Level Pressure  
Sea Level Pressure 29.63 in    
Wind  
Wind Speed 8 mph ()    
Max Wind Speed 16 mph    
Max Gust Speed -    
Visibility 6.1 miles    
Events      
T = Trace of Precipitation, MM = Missing Value Source: Averaged Metar Reports

Daily Weather History Graph

Daily Weather History Graph

Search for Another Location

Airport or City:

Trip Planner

Search our weather history database for the weather conditions in past years. The results will help you decide how hot, cold, wet, or windy it might be!

Date:

Astronomy

Aug. 31, 2006 Rise Set
Actual Time 6:06 AM AST 6:40 PM AST
Civil Twilight 5:43 AM AST 7:03 PM AST
Nautical Twilight 5:16 AM AST 7:30 PM AST
Astronomical Twilight 4:50 AM AST 7:56 PM AST
Moon 12:21 PM AST (8/31) 11:14 PM AST (8/31)
Length of Visible Light 13h 20m
Length of Day
12h 34m
Waxing Crescent, 44% of the Moon is Illuminated
Aug 31
Waxing Crescent
Sep 1
First Quarter
Sep 7
Full
Sep 14
Last Quarter
Sep 22
New

Hourly Weather History & Observations

Time (AST) Temp. Heat Index Dew Point Humidity Pressure Visibility Wind Dir Wind Speed Gust Speed Precip Events Conditions
12:00 AM 95 °F - 79 °F 51% 29.66 in 6 mi SSE 13.8 mph - -   Scattered Clouds
12:00 AM 95.0 °F 112.2 °F 78.8 °F 59% 29.65 in 6.2 mi SSE 13.8 mph - N/A   Partly Cloudy
1:00 AM 93.2 °F 107.2 °F 77.0 °F 59% 29.62 in 6.2 mi South 9.2 mph - N/A   Partly Cloudy
2:00 AM 93.2 °F 110.2 °F 78.8 °F 63% 29.62 in 6.2 mi South 2.3 mph - N/A   Partly Cloudy
3:00 AM 92 °F - 79 °F 58% 29.64 in 6 mi SSW 6.9 mph - -   Scattered Clouds
3:00 AM 93.2 °F 110.2 °F 78.8 °F 63% 29.62 in 6.2 mi SSW 6.9 mph - N/A   Partly Cloudy
4:00 AM 87.8 °F 104.9 °F 80.6 °F 79% 29.62 in - South 4.6 mph - N/A   Clear
5:00 AM 87.8 °F 104.9 °F 80.6 °F 79% 29.65 in - South 4.6 mph - N/A   Clear
6:00 AM 87 °F - 81 °F 76% 29.68 in 6 mi Calm Calm - -   Scattered Clouds
6:00 AM 87.8 °F 104.9 °F 80.6 °F 79% 29.65 in - Calm Calm - N/A   Clear
7:00 AM 87.8 °F 104.9 °F 80.6 °F 79% 29.68 in - SW 4.6 mph - N/A   Clear
8:00 AM 91.4 °F 117.8 °F 84.2 °F 79% 29.68 in - SSW 6.9 mph - N/A   Clear
9:00 AM 93 °F - 84 °F 70% 29.70 in 6 mi South 9.2 mph - -   Scattered Clouds
9:00 AM 93.2 °F 120.9 °F 84.2 °F 75% 29.68 in - South 9.2 mph - N/A   Clear
10:00 AM 96.8 °F 130.7 °F 86.0 °F 71% 29.68 in - Calm Calm - N/A   Clear
11:00 AM 98.6 °F 128.0 °F 84.2 °F 63% 29.68 in - SSW 4.6 mph - N/A   Clear
12:00 PM 100 °F - 90 °F 66% 29.67 in 6 mi WSW 13.8 mph - -   Scattered Clouds
12:00 PM 100.4 °F 146.0 °F 89.6 °F 71% 29.65 in - WSW 13.8 mph - N/A   Clear
1:00 PM 100.4 °F 146.0 °F 89.6 °F 71% 29.65 in - SW 13.8 mph - N/A   Clear
2:00 PM 102.2 °F 154.4 °F 91.4 °F 71% 29.62 in - SSW 16.1 mph - N/A   Clear
3:00 PM 100 °F - 77 °F 39% 29.62 in 6 mi West 16.1 mph - -   Scattered Clouds
3:00 PM 100.4 °F 116.5 °F 77.0 °F 47% 29.62 in - West 16.1 mph - N/A   Clear
4:00 PM 96.8 °F 112.2 °F 77.0 °F 53% 29.59 in - West 13.8 mph - N/A   Clear
5:00 PM 96.8 °F 118.6 °F 80.6 °F 60% 29.59 in - West 11.5 mph - N/A   Clear
6:00 PM 94 °F - 81 °F 58% 29.61 in 6 mi NNE 9.2 mph - -   Scattered Clouds
6:00 PM 95.0 °F 115.8 °F 80.6 °F 63% 29.59 in 6.2 mi NNE 9.2 mph - N/A   Partly Cloudy
7:00 PM 95.0 °F 112.2 °F 78.8 °F 59% 29.59 in 6.2 mi SSW 6.9 mph - N/A   Partly Cloudy
8:00 PM 93.2 °F 113.6 °F 80.6 °F 67% 29.59 in 6.2 mi WSW 9.2 mph - N/A   Partly Cloudy
9:00 PM 91 °F - 82 °F 70% 29.61 in 6 mi NNW 13.8 mph - -   Scattered Clouds
9:00 PM 91.4 °F 114.3 °F 82.4 °F 75% 29.59 in 6.2 mi NNW 13.8 mph - N/A   Partly Cloudy
10:00 PM 89.6 °F 108.2 °F 80.6 °F 75% 29.62 in 6.2 mi WNW 9.2 mph - N/A   Partly Cloudy
11:00 PM 89.6 °F 111.1 °F 82.4 °F 79% 29.59 in 6.2 mi Calm Calm - N/A   Scattered Clouds